Fort Myers, FL

4:21 PM EDT on September 26, 2017 (GMT -0400)
Page

Weather History for KFMY - March, 2014

Change the Weather History Date:

Saturday, March 1, 2014

  Actual Average Record
Temperature  
Mean Temperature 66 °F 68 °F  
Max Temperature 81 °F 79 °F 89 °F (1945)
Min Temperature 50 °F 58 °F 39 °F (1941)
Degree Days  
Heating Degree Days 0 1  
Month to date heating degree days 0 1  
Since 1 July heating degree days 169 261  
Cooling Degree Days 1 5  
Month to date cooling degree days 1 5  
Year to date cooling degree days 262 190  
Growing Degree Days 15 (Base 50)    
Moisture  
Dew Point 50 °F    
Average Humidity 64    
Maximum Humidity 93    
Minimum Humidity 30    
Precipitation  
Precipitation 0.00 in 0.08 in 3.41 in (1980)
Month to date precipitation 0.00 0.08  
Year to date precipitation 3.44 4.17  
Sea Level Pressure  
Sea Level Pressure 30.14 in    
Wind  
Wind Speed 4 mph (NNE)    
Max Wind Speed 12 mph    
Max Gust Speed 15 mph    
Visibility 10 miles    
Events      
T = Trace of Precipitation, MM = Missing Value Source: NWS Daily Summary

Daily Weather History Graph

Daily Weather History Graph

Search for Another Location

Airport or City:

Trip Planner

Search our weather history database for the weather conditions in past years. The results will help you decide how hot, cold, wet, or windy it might be!

Date:

Astronomy

Mar. 01, 2014 Rise Set
Actual Time 6:51 AM EST 6:28 PM EST
Civil Twilight 6:27 AM EST 6:51 PM EST
Nautical Twilight 6:01 AM EST 7:18 PM EST
Astronomical Twilight 5:34 AM EST 7:45 PM EST
Moon 6:49 AM EST (3/1) 7:06 PM EST (3/1)
Length of Visible Light 12h 24m
Length of Day
11h 37m
New Moon, 0% of the Moon is Illuminated
Mar 1
New Moon
Mar 8
First Quarter
Mar 16
Full
Mar 23
Last Quarter
Mar 30
New

Hourly Weather History & Observations

Time (EST) Temp. Dew Point Humidity Pressure Visibility Wind Dir Wind Speed Gust Speed Precip Events Conditions
12:53 AM 55.0 °F 45.0 °F 69% 30.12 in 10.0 mi North 4.6 mph - N/A   Clear
1:53 AM 53.1 °F 45.0 °F 74% 30.10 in 10.0 mi NE 3.5 mph - N/A   Clear
2:53 AM 51.1 °F 46.9 °F 86% 30.09 in 10.0 mi NE 4.6 mph - N/A   Clear
3:53 AM 51.1 °F 46.9 °F 86% 30.09 in 10.0 mi NE 5.8 mph - N/A   Clear
4:53 AM 51.1 °F 48.9 °F 92% 30.10 in 10.0 mi East 3.5 mph - N/A   Clear
5:53 AM 50.0 °F 48.0 °F 93% 30.12 in 10.0 mi Calm Calm - N/A   Clear
6:53 AM 51.1 °F 48.0 °F 89% 30.14 in 9.0 mi Calm Calm - N/A   Clear
7:53 AM 55.0 °F 52.0 °F 89% 30.16 in 10.0 mi Calm Calm - N/A   Clear
8:53 AM 62.1 °F 53.1 °F 72% 30.19 in 10.0 mi ENE 4.6 mph - N/A   Clear
9:53 AM 68.0 °F 53.1 °F 59% 30.21 in 10.0 mi Calm Calm - N/A   Clear
10:53 AM 73.0 °F 44.1 °F 35% 30.22 in 10.0 mi NW 6.9 mph - N/A   Clear
11:53 AM 75.0 °F 46.9 °F 37% 30.20 in 10.0 mi North 5.8 mph - N/A   Clear
12:53 PM 75.0 °F 48.0 °F 38% 30.17 in 10.0 mi Calm Calm - N/A   Clear
1:53 PM 78.1 °F 46.9 °F 33% 30.14 in 10.0 mi Variable 5.8 mph - N/A   Clear
2:53 PM 80.1 °F 46.9 °F 31% 30.12 in 10.0 mi Variable 5.8 mph - N/A   Clear
3:53 PM 80.1 °F 46.9 °F 31% 30.11 in 10.0 mi Variable 4.6 mph - N/A   Clear
4:53 PM 80.1 °F 46.9 °F 31% 30.11 in 10.0 mi NE 5.8 mph - N/A   Clear
5:53 PM 75.0 °F 53.1 °F 46% 30.12 in 10.0 mi NW 9.2 mph - N/A   Clear
6:53 PM 69.1 °F 55.0 °F 61% 30.13 in 10.0 mi WNW 6.9 mph - N/A   Clear
7:53 PM 66.9 °F 57.0 °F 70% 30.14 in 10.0 mi NNW 4.6 mph - N/A   Clear
8:53 PM 66.9 °F 57.0 °F 70% 30.16 in 10.0 mi Calm Calm - N/A   Clear
9:53 PM 63.0 °F 55.9 °F 78% 30.17 in 10.0 mi NE 3.5 mph - N/A   Clear
10:53 PM 64.0 °F 55.9 °F 75% 30.17 in 10.0 mi East 5.8 mph - N/A   Clear
11:53 PM 62.1 °F 55.9 °F 80% 30.17 in 10.0 mi ENE 4.6 mph - N/A   Clear